ATLANTIS

Last updated on Thu Mar 29 2018 00:15:08 GMT+0000 (Coordinated Universal Time)

1 42737U 98067MS 18087.11387049 .13966215 12356-4 93055-3 0 9999 2 42737 51.6095 27.8979 0006293 234.7874 125.2564 16.40626348 47903

Satellite not in orbit